Location: Agadir-Ikarkaouin
(31.1503°N, 9.0246°W)
Time: 04:10:56
(UTC+00:00)

CZ-2C R/B - Pass Details

Date: 18 September 2020
Orbit: 391 x 588 km, 35.0° (Epoch: 23 October)

Event Time Altitude Azimuth Distance (km) Brightness Sun altitude
Rises 18:53:58 0° 259° (W) 2,527 6.6 -4.4°
Reaches altitude 10° 18:56:14 10° 262° (W) 1,612 5.4 -4.9°
Maximum altitude 18:59:53 66° 346° (NNW) 484 1.2 -5.6°
Drops below altitude 10° 19:03:18 10° 69° (ENE) 1,509 3.0 -6.4°
Enters shadow 19:03:59 - 71° (ENE) 1,787 3.4 -6.5°
